Date,TemperatureHighF,TemperatureAvgF,TemperatureLowF,DewpointHighF,DewpointAvgF,DewpointLowF,HumidityHigh,HumidityAvg,HumidityLow,PressureMaxIn,PressureMinIn,WindSpeedMaxMPH,WindSpeedAvgMPH,GustSpeedMaxMPH,PrecipitationSumIn
2013-1-1,16.5,5.8,-8.3,5.3,-9.7,-22.6,61,48,40,30.21,29.83,10,1,11,0.00
2013-1-2,19.2,10.3,-0.8,9.2,-1.0,-11.8,65,60,57,30.30,29.80,13,4,18,0.00
2013-1-3,27.0,15.3,2.5,3.5,-1.6,-8.7,59,48,36,30.30,29.83,13,4,19,0.00
2013-1-4,26.8,18.3,3.4,3.7,-2.4,-16.0,44,39,36,30.18,29.88,13,4,15,0.00
2013-1-5,12.0,6.9,1.4,-8.1,-12.7,-17.8,39,39,39,30.18,30.12,10,2,11,0.00
2013-1-6,19.0,12.7,0.0,6.9,-4.4,-19.1,60,46,39,30.21,29.62,15,4,20,0.00
2013-1-7,33.6,25.9,16.9,15.0,7.7,2.5,58,46,35,29.83,29.50,19,4,29,0.00
2013-1-8,33.6,24.9,11.3,25.9,10.4,-2.7,80,54,40,29.83,29.53,16,5,30,0.00
2013-1-9,28.2,24.1,20.3,13.8,5.5,1.9,66,45,35,30.18,29.59,28,8,33,0.00
2013-1-10,39.0,30.1,22.8,17.6,12.9,5.3,64,49,37,30.00,29.68,13,5,16,0.00
2013-1-11,27.1,13.6,6.4,21.6,3.3,-4.2,79,63,60,29.80,29.68,43,14,43,0.00
2013-1-12,6.4,-3.5,-14.3,-4.2,-13.7,-23.9,61,61,61,30.21,29.77,24,9,35,0.00
2013-1-13,3.0,-6.8,-18.6,-7.5,-16.8,-28.0,61,61,61,30.24,30.15,10,1,13,0.00
2013-1-14,2.8,-2.0,-13.5,-7.7,-12.3,-23.2,61,61,61,30.30,30.18,8,1,10,0.00
2013-1-15,24.4,3.1,-14.8,19.2,-6.7,-24.4,80,63,52,30.18,29.50,21,3,25,0.00
2013-1-16,18.0,-4.5,-14.4,6.7,-15.3,-24.7,62,59,59,30.33,29.56,19,6,22,0.00
2013-1-17,-1.5,-6.4,-15.5,-12.4,-17.1,-25.7,59,59,59,30.47,30.21,10,1,11,0.00
2013-1-18,9.3,4.7,-3.1,-2.2,-6.6,-14.1,59,59,59,30.21,29.80,10,3,11,0.00
2013-1-19,8.6,-1.2,-16.1,-2.9,-12.1,-26.2,59,59,59,30.39,29.74,30,7,31,0.00
2013-1-20,-6.3,-12.5,-20.6,-17.0,-22.9,-30.5,59,59,59,30.42,30.36,15,4,21,0.00
2013-1-21,-11.2,-16.6,-20.4,-21.6,-26.7,-30.4,59,59,59,30.39,30.30,19,6,19,0.00
2013-1-22,-1.3,-14.0,-24.0,-12.3,-24.3,-33.8,59,59,59,30.36,30.15,14,2,14,0.00
2013-1-23,-1.8,-14.6,-27.0,-12.8,-24.9,-36.7,59,59,59,30.74,30.15,19,6,22,0.00
2013-1-24,0.3,-13.0,-29.4,-10.7,-23.4,-38.9,59,59,59,30.74,30.00,17,5,19,0.00
2013-1-25,0.9,-9.4,-17.9,-10.2,-19.9,-28.0,59,59,59,30.36,29.97,13,4,16,0.00
2013-1-26,10.4,-2.2,-18.6,-1.2,-13.1,-28.6,59,59,59,30.33,30.09,11,3,14,0.00
2013-1-27,19.8,5.7,-5.1,2.0,-8.9,-15.9,59,51,38,30.09,29.88,13,1,25,0.00
2013-1-28,23.7,14.2,1.6,8.2,-1.6,-15.2,65,49,39,29.88,29.80,152,1,157,0.00
2013-1-29,19.8,13.7,-0.6,11.2,-0.4,-16.3,69,53,44,30.09,29.80,0,0,0,0.00
2013-1-30,5.9,1.4,-6.0,-10.3,-14.5,-21.3,46,46,46,30.06,29.97,0,0,0,0.00
2013-1-31,-6.0,-13.8,-20.0,-21.3,-28.5,-34.3,46,46,46,30.33,30.03,16,2,19,0.00
2013-2-1,-7.8,-19.0,-29.0,-22.9,-33.3,-42.6,46,46,46,30.30,30.12,8,1,11,0.00
2013-2-2,3.7,-9.7,-27.9,-12.3,-24.7,-41.6,46,46,46,30.27,30.03,11,2,14,0.00
2013-2-3,5.9,-2.2,-14.1,-10.3,-17.8,-28.8,46,46,46,30.18,30.12,10,2,14,0.00
2013-2-4,12.9,0.3,-20.0,-3.8,-15.5,-34.3,46,46,46,30.12,29.71,11,3,14,0.00
2013-2-5,2.8,-3.9,-14.4,-13.1,-19.3,-29.1,46,46,46,30.15,29.77,11,3,11,0.00
2013-2-6,12.7,5.9,0.0,-4.0,-10.3,-15.8,46,46,46,30.30,30.06,10,3,13,0.00
2013-2-7,9.7,0.3,-8.0,-6.8,-15.4,-23.1,46,46,46,30.42,30.30,7,1,8,0.00
2013-2-8,23.5,11.8,-5.8,7.6,-4.5,-21.3,59,47,39,30.36,30.06,12,3,17,0.00
2013-2-9,28.6,24.3,21.0,17.1,12.8,7.6,76,62,46,30.06,29.91,9,3,13,0.00
2013-2-10,28.4,24.8,22.8,19.1,14.3,5.3,81,65,46,29.97,29.88,21,7,25,0.00
2013-2-11,23.0,16.4,11.3,6.9,0.5,-5.3,60,50,37,30.03,29.83,19,6,23,0.00
2013-2-12,32.9,21.8,7.5,8.9,3.3,-5.1,57,45,34,29.83,29.68,19,4,19,0.00
2013-2-13,30.0,20.4,9.3,10.4,4.9,-10.1,71,51,39,29.94,29.71,16,4,20,0.00
2013-2-14,13.8,4.9,-5.1,-6.0,-14.1,-23.2,40,40,40,30.33,29.94,13,4,15,0.00
2013-2-15,15.8,2.6,-8.3,-4.7,-16.6,-26.1,40,39,38,30.39,30.27,14,2,16,0.00
2013-2-16,19.0,7.1,-8.0,2.1,-11.9,-26.8,51,40,38,30.27,29.88,14,4,18,0.00
2013-2-17,29.5,23.9,16.9,23.4,12.0,2.1,87,60,47,29.88,29.50,19,6,22,0.00
2013-2-18,22.3,3.2,-9.0,15.9,-6.0,-18.0,77,65,64,30.30,29.68,30,14,32,0.00
2013-2-19,-3.8,-10.8,-17.3,-13.0,-19.7,-25.9,64,64,64,30.59,30.30,20,7,22,0.00
2013-2-20,7.7,-6.1,-19.8,-2.0,-15.2,-28.3,64,64,64,30.62,30.45,8,2,11,0.00
2013-2-21,20.7,9.3,2.8,3.8,-8.4,-21.0,64,47,29,30.47,30.33,11,4,14,0.00
2013-2-22,23.4,9.8,-0.6,-0.3,-12.8,-24.1,40,34,31,30.33,30.00,6,0,7,0.00
2013-2-23,25.0,18.4,7.3,11.7,3.6,-11.9,72,52,40,30.00,29.91,10,2,12,0.00
2013-2-24,27.3,18.8,12.6,8.7,4.2,0.8,70,54,35,30.06,29.97,13,3,15,0.00
2013-2-25,34.5,18.8,4.5,9.0,3.2,-5.1,64,52,34,30.06,29.94,12,2,13,0.00
2013-2-26,32.5,19.9,10.9,6.6,2.5,-1.1,60,47,32,30.18,29.97,7,2,10,0.00
2013-2-27,31.6,21.6,9.0,8.6,4.0,-3.0,66,47,35,30.36,30.15,19,6,20,0.00
2013-2-28,25.9,15.5,6.6,0.5,-5.1,-13.0,44,39,30,30.45,30.36,10,4,12,0.00
2013-3-1,27.5,10.6,-2.6,-1.4,-10.9,-21.4,39,37,27,30.53,30.39,10,1,10,0.00
2013-3-2,28.6,16.7,1.4,5.9,-3.9,-17.8,47,39,35,30.39,30.12,13,4,16,0.00
2013-3-3,33.6,27.0,21.4,7.1,4.1,1.8,47,37,29,30.12,30.00,10,4,14,0.00
2013-3-4,27.9,24.2,21.4,16.9,9.4,-1.6,77,55,30,30.30,30.03,16,6,19,0.00
2013-3-5,25.3,20.4,14.5,13.6,7.5,2.9,72,58,39,30.47,30.30,13,6,15,0.00
2013-3-6,27.1,17.3,4.3,8.4,1.2,-10.5,65,50,35,30.50,30.39,8,1,10,0.00
2013-3-7,32.5,18.9,1.0,5.7,-1.7,-13.5,53,41,29,30.42,30.21,14,3,16,0.00
2013-3-8,28.4,23.2,16.7,14.2,6.4,0.6,63,49,35,30.24,30.18,11,3,14,0.00
2013-3-9,30.6,23.2,17.4,7.8,4.9,1.3,59,46,29,30.18,29.94,18,4,20,0.00
2013-3-10,22.1,16.7,5.7,6.8,-2.9,-13.3,54,42,29,30.36,30.12,16,6,20,0.00
2013-3-11,27.3,15.1,2.7,0.7,-6.8,-16.1,44,37,27,30.18,29.91,7,1,7,0.00
2013-3-12,26.1,17.7,6.8,5.4,-1.8,-12.9,52,42,34,30.36,30.00,21,7,21,0.00
2013-3-13,23.0,11.1,-4.2,-0.5,-10.5,-22.8,39,37,31,30.39,30.12,11,3,13,0.00
2013-3-14,30.6,22.5,10.8,9.3,3.1,-8.8,56,43,34,30.27,30.09,16,6,21,0.00
2013-3-15,10.8,5.0,0.0,-8.8,-14.0,-18.6,40,40,40,30.30,30.24,19,8,20,0.00
2013-3-16,10.6,1.6,-9.6,-8.9,-17.1,-27.3,40,40,40,30.39,30.24,21,5,22,0.00
2013-3-17,14.4,2.4,-14.6,2.9,-15.1,-31.9,61,43,40,30.36,29.83,13,4,16,0.00
2013-3-18,17.4,13.6,4.6,7.8,0.3,-11.9,66,55,45,30.00,29.68,25,9,27,0.00
2013-3-19,15.8,5.3,-5.4,-3.5,-14.6,-21.2,45,39,30,30.36,30.00,16,7,21,0.00
2013-3-20,19.8,6.8,-4.4,-7.5,-17.6,-27.4,33,31,29,30.39,30.27,19,6,19,0.00
2013-3-21,23.0,7.9,-6.9,-3.4,-15.7,-28.5,35,32,29,30.27,30.21,10,2,10,0.00
2013-3-22,27.9,10.8,-6.9,3.7,-11.0,-28.5,46,36,30,30.24,30.18,10,2,13,0.00
2013-3-23,30.7,17.2,0.5,7.2,-2.4,-15.3,46,41,32,30.30,30.21,13,3,14,0.00
2013-3-24,33.4,24.4,17.4,8.7,4.1,1.1,50,41,29,30.36,30.27,16,6,16,0.00
2013-3-25,32.4,23.5,14.5,7.3,4.6,1.2,57,44,34,30.42,30.36,11,5,13,0.00
2013-3-26,32.7,18.4,4.1,6.9,0.5,-7.9,62,47,29,30.39,30.36,8,2,11,0.00
2013-3-27,34.9,17.4,-1.5,6.9,0.3,-11.4,62,49,29,30.42,30.36,11,2,11,0.00
2013-3-28,44.2,26.4,9.1,15.9,6.9,-2.0,68,46,27,30.36,30.27,8,2,10,0.00
2013-3-29,40.6,27.8,19.9,21.0,14.7,9.2,79,61,32,30.30,30.03,7,2,10,0.00
2013-3-30,42.3,31.4,21.9,21.6,12.2,4.9,84,48,27,30.03,29.91,21,4,21,0.00
2013-3-31,28.6,20.9,12.0,24.2,1.7,-6.6,88,44,30,30.27,29.94,19,8,22,0.00
2013-4-1,31.1,18.9,8.1,2.4,-4.2,-10.2,42,36,27,30.36,30.27,15,5,19,0.00
2013-4-2,28.2,18.6,9.7,-0.5,-5.1,-11.4,43,35,27,30.47,30.30,9,3,10,0.00
2013-4-3,41.2,27.7,13.3,19.0,6.3,-7.1,54,40,32,30.36,29.91,18,5,22,0.00
2013-4-4,32.5,25.3,15.1,13.5,2.0,-2.8,57,36,27,30.36,30.03,16,6,21,0.00
2013-4-5,35.1,22.9,6.8,21.2,3.1,-5.4,73,45,26,30.36,29.97,10,3,14,0.00
2013-4-6,37.0,32.9,28.8,21.0,15.7,10.5,72,50,36,29.97,29.83,25,6,25,0.00
2013-4-7,32.4,27.1,20.7,14.1,7.2,-0.3,52,42,29,30.03,29.94,16,6,18,0.00
2013-4-8,25.5,19.0,11.7,-0.9,-4.5,-11.9,39,35,29,30.39,30.00,19,9,22,0.00
2013-4-9,32.7,19.6,4.8,3.3,-6.2,-18.0,39,31,27,30.50,30.39,10,4,14,0.00
2013-4-10,40.8,25.6,9.1,7.4,0.8,-5.1,54,35,25,30.45,30.18,8,2,11,0.00
2013-4-11,44.1,32.1,20.1,9.2,2.8,-3.7,37,29,24,30.21,30.06,16,4,16,0.00
2013-4-12,38.8,34.6,28.9,12.5,7.8,4.5,45,33,25,30.09,29.97,13,4,16,0.00
2013-4-13,39.7,30.1,17.6,12.3,7.2,2.0,66,40,27,30.03,30.00,13,3,14,0.00
2013-4-14,44.6,33.1,17.8,12.1,6.9,1.0,49,34,24,30.06,29.85,15,5,19,0.00
2013-4-15,35.8,32.9,30.6,31.6,23.9,9.4,100,72,33,30.06,29.80,21,11,25,0.00
2013-4-16,37.9,31.8,26.4,23.1,7.1,1.6,70,36,26,30.45,30.06,16,6,19,0.00
2013-4-17,42.1,31.6,23.0,19.6,11.3,0.8,68,43,32,30.47,30.24,9,2,11,0.00
2013-4-18,42.1,33.9,27.5,20.4,10.2,4.1,71,39,25,30.24,30.00,18,6,22,0.00
2013-4-19,36.3,29.1,22.6,7.0,2.7,-3.6,41,32,26,30.15,30.00,21,8,24,0.00
2013-4-20,41.4,28.2,10.9,7.9,2.2,-4.3,57,34,25,30.27,30.15,13,3,15,0.00
2013-4-21,42.3,34.1,29.8,29.7,17.5,5.7,84,52,33,30.18,29.97,22,6,25,0.00
2013-4-22,37.4,30.7,24.4,13.5,6.9,1.3,53,37,26,30.42,30.15,16,6,19,0.00
2013-4-23,43.5,32.0,17.1,13.6,8.3,5.6,68,39,24,30.36,30.00,13,3,16,0.00
2013-4-24,42.4,32.8,24.8,28.4,16.8,9.8,80,53,33,30.06,29.88,14,3,19,0.00
2013-4-25,46.0,35.5,21.6,25.0,15.9,10.4,82,48,26,30.09,29.91,14,4,19,0.00
2013-4-26,64.2,47.9,34.9,25.6,22.4,18.2,66,40,22,30.03,29.88,13,3,14,0.00
2013-4-27,63.9,50.9,41.5,28.2,23.7,19.3,56,36,22,30.00,29.68,15,3,15,0.00
2013-4-28,63.9,50.4,37.8,31.9,22.6,12.5,64,36,21,29.88,29.56,22,6,32,0.00
2013-4-29,56.1,43.2,27.5,42.9,24.4,12.2,82,52,24,29.88,29.59,14,4,16,0.12
2013-4-30,47.8,39.9,29.5,47.0,37.3,17.6,100,90,61,30.00,29.44,16,4,20,0.67
2013-5-1,31.8,28.6,25.9,18.0,12.3,5.4,62,50,40,30.68,30.00,16,6,18,0.04
2013-5-2,37.2,30.8,26.1,14.5,10.4,7.2,61,43,33,30.80,30.62,10,3,11,0.04
2013-5-3,52.2,37.8,21.7,24.3,14.3,11.2,81,42,25,30.62,30.39,12,3,13,0.00
2013-5-4,60.3,44.6,25.7,24.5,16.6,6.6,77,37,21,30.45,30.33,11,3,16,0.00
2013-5-5,68.9,51.3,30.6,30.2,20.3,6.1,78,32,21,30.36,30.12,10,2,10,0.00
2013-5-6,81.7,64.0,42.8,33.7,26.2,18.7,46,25,17,30.12,29.97,16,4,19,0.00
2013-5-7,81.0,65.2,46.2,33.2,27.2,17.9,44,25,17,30.03,29.91,14,3,20,0.00
2013-5-8,55.6,47.9,36.3,22.6,16.0,8.1,34,28,22,30.33,29.97,24,12,28,0.00
2013-5-9,59.2,45.2,29.8,21.0,14.0,6.0,53,30,21,30.42,30.27,15,6,17,0.00
2013-5-10,54.3,42.9,32.0,36.9,17.1,5.4,69,36,25,30.27,30.00,19,5,27,0.04
2013-5-11,49.5,38.9,28.0,23.1,11.8,1.6,57,34,23,30.39,30.21,24,9,27,0.00
2013-5-12,62.2,44.1,21.9,23.6,13.6,2.6,64,31,21,30.33,30.00,14,2,14,0.00
2013-5-13,81.7,62.0,46.9,33.7,21.7,10.7,26,21,17,30.00,29.59,25,6,25,0.00
2013-5-14,80.2,65.1,56.3,39.3,28.1,19.3,37,25,18,29.74,29.38,30,7,38,0.00
2013-5-15,72.3,59.3,41.2,37.6,27.3,14.8,77,33,19,29.97,29.74,14,4,19,0.00
2013-5-16,73.0,58.9,40.5,29.0,23.2,14.9,50,27,19,30.06,29.97,10,2,11,0.00
2013-5-17,67.8,56.6,44.4,50.8,30.3,18.6,70,38,24,30.09,30.00,14,3,14,0.04
2013-5-18,67.6,57.8,51.4,53.3,37.6,26.6,96,52,24,30.00,29.94,8,2,10,0.20
2013-5-19,63.7,56.7,51.4,53.5,47.0,37.2,99,73,38,29.97,29.91,18,6,21,0.28
2013-5-20,58.3,54.3,48.6,43.5,37.4,24.3,76,54,34,30.00,29.88,25,11,31,0.43
2013-5-21,72.9,58.8,47.8,28.9,22.5,13.1,36,25,19,30.06,29.97,19,8,25,0.04
2013-5-22,70.2,56.8,37.6,34.9,25.4,14.0,76,33,21,30.30,30.06,25,7,26,0.00
2013-5-23,66.9,53.2,34.9,25.6,18.9,11.5,45,27,21,30.47,30.30,10,3,13,0.00
2013-5-24,73.0,56.9,36.9,29.0,23.1,15.5,45,29,19,30.36,30.18,14,2,14,0.00
2013-5-25,66.4,58.5,52.9,37.8,31.6,25.9,50,37,28,30.27,30.18,13,4,16,0.00
2013-5-26,72.0,63.3,53.8,36.1,30.3,25.9,50,30,19,30.24,30.09,13,4,14,0.00
2013-5-27,75.9,63.9,50.9,36.9,32.0,26.9,58,32,18,30.09,29.83,12,3,13,0.00
2013-5-28,65.8,61.6,58.6,57.9,46.0,35.9,91,58,34,29.83,29.62,10,4,14,0.20
2013-5-29,69.3,61.0,53.1,52.9,45.6,39.6,91,59,36,29.83,29.62,14,5,18,0.00
2013-5-30,61.9,57.7,53.8,55.6,52.2,47.5,93,82,61,29.80,29.68,17,7,21,0.71
2013-5-31,55.4,52.5,48.2,51.0,45.5,29.8,92,78,48,29.91,29.59,22,9,26,0.91
2013-6-1,58.5,51.6,44.8,33.0,27.0,20.8,57,40,26,30.18,29.91,20,9,23,0.04
2013-6-2,62.6,50.5,35.4,32.3,22.9,12.8,81,38,21,30.21,30.12,13,4,17,0.08
2013-6-3,67.8,53.8,35.1,35.0,24.6,16.2,85,38,21,30.18,30.09,11,2,14,0.00
2013-6-4,71.6,60.3,46.8,28.9,24.3,18.5,43,26,19,30.18,30.12,12,2,19,0.00
2013-6-5,76.5,62.2,43.2,30.9,26.8,18.1,58,28,18,30.21,30.09,13,2,14,0.00
2013-6-6,77.2,65.1,49.6,42.6,30.3,22.8,72,30,18,30.15,30.03,10,2,13,0.00
2013-6-7,76.3,63.1,53.8,46.1,33.3,22.6,66,35,18,30.03,29.91,10,2,16,0.00
2013-6-8,78.1,64.0,47.8,48.6,34.7,24.6,91,41,18,29.94,29.88,15,3,21,0.00
2013-6-9,70.5,60.9,53.8,57.1,42.8,29.1,80,54,28,29.94,29.91,8,1,10,0.04
2013-6-10,75.7,62.0,51.6,54.9,45.1,34.5,95,59,25,29.91,29.74,13,2,16,0.16
2013-6-11,75.2,64.3,50.7,49.3,36.8,25.6,88,43,18,29.97,29.85,16,4,19,0.00
2013-6-12,73.0,63.9,51.8,45.6,36.8,29.9,77,40,23,30.15,29.97,13,4,16,0.00
2013-6-13,79.7,66.4,50.9,52.6,35.7,24.0,93,39,18,30.24,30.09,13,2,16,0.00
2013-6-14,75.0,64.6,55.2,60.1,42.1,25.5,88,46,27,30.09,29.80,12,2,19,0.12
2013-6-15,78.4,66.8,56.7,61.0,37.5,25.9,93,39,18,29.85,29.77,21,5,28,0.00
2013-6-16,73.6,64.6,53.6,50.4,38.9,32.5,86,42,25,29.94,29.80,13,3,15,0.00
2013-6-17,75.2,65.2,54.5,50.8,36.1,25.8,77,39,18,30.12,29.94,11,4,15,0.00
2013-6-18,77.9,64.5,47.1,49.2,37.8,31.9,84,42,22,30.15,29.97,7,1,11,0.00
2013-6-19,84.6,70.1,52.2,54.4,39.2,27.6,90,40,16,30.00,29.94,11,2,15,0.00
2013-6-20,80.2,70.6,59.9,57.5,42.2,36.0,70,38,25,30.03,29.94,19,4,19,0.04
2013-6-21,72.5,68.4,61.7,57.6,49.9,42.3,80,53,39,30.06,29.94,10,2,12,0.00
2013-6-22,81.0,71.4,63.3,59.5,52.0,42.9,84,54,28,30.03,29.85,13,3,14,0.00
2013-6-23,75.4,64.7,57.9,63.9,58.6,47.3,99,83,37,29.88,29.56,14,2,19,0.94
2013-6-24,83.3,70.1,56.8,57.4,44.0,35.0,100,47,19,29.80,29.68,14,4,19,0.00
2013-6-25,88.5,74.8,58.1,60.2,46.9,36.6,93,44,18,29.83,29.68,21,2,30,0.28
2013-6-26,80.6,70.4,63.7,67.9,54.9,36.6,100,65,26,29.74,29.65,15,4,22,0.51
2013-6-27,75.6,67.6,61.9,61.3,51.7,37.6,95,61,27,29.88,29.74,22,7,29,0.00
2013-6-28,76.1,67.4,62.8,56.2,49.3,39.8,78,54,29,30.03,29.88,13,6,18,0.00
2013-6-29,82.0,70.2,58.3,54.6,41.1,28.4,86,41,17,30.15,30.03,14,4,15,0.00
2013-6-30,83.7,71.0,54.5,51.2,38.7,30.3,78,35,17,30.24,30.15,12,2,13,0.00
2013-7-1,84.9,71.8,55.9,57.9,43.2,32.4,93,45,16,30.30,30.18,9,1,11,0.00
2013-7-2,88.5,74.4,60.1,55.6,45.8,35.5,76,42,16,30.18,30.03,10,1,11,0.00
2013-7-3,89.1,77.0,62.2,64.1,45.1,33.3,93,40,16,30.03,29.83,10,1,14,0.00
2013-7-4,88.2,76.8,67.1,57.0,43.4,39.6,61,32,18,29.83,29.71,7,2,11,0.00
2013-7-5,84.0,75.1,64.4,60.7,44.8,32.4,83,40,17,29.83,29.74,13,3,16,0.00
2013-7-6,81.5,72.3,66.2,49.6,44.5,38.3,53,39,23,29.88,29.83,5,0,10,0.00
2013-7-7,80.4,71.8,63.0,67.6,50.5,37.5,97,52,25,29.97,29.83,14,3,16,0.04
2013-7-8,85.1,69.6,56.5,62.1,49.8,36.7,97,57,19,30.03,29.91,14,2,19,0.00
2013-7-9,71.2,64.7,59.2,56.8,40.3,31.4,88,44,26,30.06,29.94,14,5,16,0.04
2013-7-10,76.8,66.9,57.0,60.5,49.4,36.6,100,60,25,30.06,30.00,10,2,11,0.04
2013-7-11,85.3,74.1,60.8,53.8,45.0,36.7,76,40,19,30.00,29.77,12,2,18,0.00
2013-7-12,79.7,74.2,68.5,69.6,58.3,48.1,91,60,37,29.85,29.68,13,2,13,0.04
2013-7-13,86.2,74.8,62.6,67.8,44.5,31.6,98,44,16,30.06,29.85,11,3,14,0.00
2013-7-14,76.6,67.8,59.4,57.3,42.5,30.5,81,44,23,30.27,30.03,14,5,17,0.04
2013-7-15,84.2,70.0,55.6,57.2,44.1,30.3,87,46,18,30.27,30.03,10,2,15,0.00
2013-7-16,80.1,73.1,60.3,65.9,46.7,35.2,86,43,21,30.24,29.91,14,4,16,0.00
2013-7-17,81.0,69.7,56.5,51.6,38.7,29.4,73,37,17,30.30,30.12,10,2,11,0.00
2013-7-18,79.2,68.9,62.1,61.8,51.0,39.6,98,56,31,30.15,29.68,22,1,34,0.83
2013-7-19,77.2,66.2,52.7,66.1,44.7,22.5,100,56,18,30.03,29.77,25,6,27,0.00
2013-7-20,67.8,58.2,47.8,40.0,30.3,22.8,70,38,21,30.15,30.03,11,2,13,0.00
2013-7-21,74.5,61.5,49.1,63.2,45.2,31.9,99,63,22,30.06,29.62,11,2,13,1.14
2013-7-22,70.7,63.7,56.7,63.9,43.3,30.5,100,54,26,30.00,29.62,19,7,24,0.00
2013-7-23,74.1,62.2,50.0,56.1,41.3,29.4,97,54,19,30.12,30.00,10,1,13,0.00
2013-7-24,76.6,65.2,55.2,55.3,45.7,35.9,90,53,24,30.06,29.94,14,2,21,0.00
2013-7-25,68.2,59.7,55.4,63.1,51.4,39.6,100,77,38,30.15,29.91,15,4,20,1.10
2013-7-26,66.0,59.5,51.4,45.2,33.3,26.4,74,40,24,30.33,30.15,16,5,18,0.00
2013-7-27,71.6,61.3,48.4,48.3,34.6,24.6,91,44,19,30.30,30.12,14,4,19,0.00
2013-7-28,75.7,63.0,47.5,53.8,35.7,25.0,95,44,18,30.15,30.06,5,1,10,0.00
2013-7-29,75.4,62.4,48.6,60.0,39.8,31.8,90,50,22,30.09,29.97,10,2,14,0.00
2013-7-30,73.4,66.4,58.6,63.3,48.5,34.7,100,60,26,30.06,29.97,15,3,17,0.24
2013-7-31,72.9,63.3,53.8,50.5,38.8,29.9,77,44,23,30.06,30.00,19,5,20,0.00
2013-8-1,73.8,64.4,55.9,58.8,41.8,30.5,88,48,22,30.03,29.94,14,3,19,0.04
2013-8-2,72.9,62.2,51.4,50.8,36.7,24.6,91,45,19,30.18,29.97,13,3,14,0.00
2013-8-3,73.2,60.4,47.5,47.5,35.8,25.3,90,46,19,30.30,30.18,8,1,10,0.00
2013-8-4,72.7,58.2,46.6,58.0,47.1,30.4,98,73,23,30.30,30.03,10,1,14,0.24
2013-8-5,75.9,65.2,57.4,61.8,47.7,34.3,100,62,25,30.03,29.80,13,2,16,0.00
2013-8-6,69.1,62.8,54.9,58.0,38.9,24.7,95,50,21,29.97,29.80,18,4,18,0.00
2013-8-7,65.5,57.4,51.4,49.9,32.3,26.3,74,40,24,30.09,29.97,11,3,16,0.04
2013-8-8,68.4,57.7,45.3,50.4,35.1,24.6,98,50,21,30.09,30.03,21,4,21,0.00
2013-8-9,65.5,59.0,54.3,55.0,41.9,30.0,95,57,28,30.21,30.03,14,4,16,0.00
2013-8-10,74.5,61.2,49.5,59.3,44.4,27.8,100,65,19,30.24,30.12,11,2,16,0.12
2013-8-11,74.8,63.3,53.2,64.8,45.7,28.2,100,63,19,30.15,30.09,12,2,16,0.00
2013-8-12,71.6,62.9,54.3,49.8,35.3,23.6,78,41,19,30.24,30.09,13,3,15,0.00
2013-8-13,72.1,59.5,45.5,50.8,34.3,24.6,95,46,19,30.30,30.24,10,2,14,0.00
2013-8-14,75.9,60.5,43.9,53.4,36.4,27.0,99,51,18,30.24,30.09,10,1,12,0.00
2013-8-15,80.4,66.3,51.3,52.6,37.4,28.7,91,41,18,30.12,30.06,10,1,13,0.00
2013-8-16,86.0,73.2,59.9,52.2,38.5,28.7,72,33,16,30.06,29.97,16,3,19,0.00
2013-8-17,81.5,72.4,63.1,46.9,40.4,30.5,47,32,23,30.00,29.85,15,4,16,0.00
2013-8-18,78.3,70.9,62.6,67.6,56.8,45.5,97,64,34,29.91,29.85,10,1,16,1.06
2013-8-19,88.5,75.9,61.9,67.2,48.7,33.0,100,51,16,29.91,29.71,14,2,15,0.00
2013-8-20,86.7,74.8,64.4,55.3,39.9,27.8,69,31,16,29.83,29.71,16,4,24,0.00
2013-8-21,75.4,66.5,55.9,54.8,35.9,23.5,87,37,18,30.15,29.83,16,4,22,0.00
2013-8-22,75.2,64.7,51.1,50.2,32.2,25.3,86,32,18,30.27,30.15,10,1,11,0.00
2013-8-23,80.8,68.2,52.0,38.6,33.9,29.6,59,31,17,30.15,29.91,8,2,11,0.00
2013-8-24,87.1,74.9,67.3,68.3,53.0,34.0,93,51,25,29.91,29.71,10,2,14,0.04
2013-8-25,89.6,76.8,68.5,68.8,49.2,32.4,94,46,15,29.97,29.77,13,1,13,0.00
2013-8-26,89.4,74.4,60.1,62.8,47.0,32.5,96,47,16,30.00,29.88,7,0,10,0.16
2013-8-27,89.1,80.6,64.8,66.7,46.9,38.7,96,35,18,29.94,29.88,7,1,8,0.00
2013-8-28,90.9,77.5,65.7,67.8,46.7,30.8,96,42,15,30.03,29.94,5,0,8,0.00
2013-8-29,78.1,70.6,66.0,67.7,56.4,40.5,91,64,28,30.00,29.88,11,1,19,0.00
2013-8-30,84.9,74.1,62.4,67.9,50.3,36.6,98,54,19,30.03,29.77,10,1,11,0.00
2013-8-31,86.0,72.3,58.3,52.0,40.0,32.4,58,33,16,29.91,29.71,15,4,22,0.04
2013-9-1,64.8,58.4,50.2,47.3,33.2,22.8,77,42,22,30.15,29.91,16,6,20,0.00
2013-9-2,72.7,59.1,42.6,49.1,32.4,22.8,93,45,19,30.18,30.00,10,1,12,0.00
2013-9-3,82.6,65.0,51.1,38.0,29.6,17.9,42,27,17,30.18,29.94,16,4,19,0.00
2013-9-4,68.9,55.7,41.5,40.1,26.5,17.3,83,37,21,30.30,30.18,8,1,8,0.00
2013-9-5,81.1,68.8,49.3,36.5,30.0,20.0,42,25,17,30.24,29.97,11,2,13,0.00
2013-9-6,90.1,75.6,65.1,55.5,41.1,27.3,69,32,18,30.00,29.85,12,2,16,0.00
2013-9-7,78.1,67.4,58.6,44.9,33.1,25.0,59,30,18,30.21,30.00,15,4,16,0.00
2013-9-8,73.2,63.1,51.3,43.4,35.5,31.3,70,38,23,30.21,29.91,7,1,9,0.00
2013-9-9,66.6,62.7,58.8,55.4,48.0,39.7,77,59,43,29.91,29.77,7,0,8,0.00
2013-9-10,78.3,67.7,59.4,61.2,46.4,31.6,97,56,18,29.91,29.83,14,2,14,0.08
2013-9-11,75.0,62.5,53.4,56.0,38.2,24.6,92,46,19,30.24,29.91,18,2,22,0.00
2013-9-12,68.7,59.4,48.6,45.6,32.4,23.4,72,39,21,30.36,30.24,10,2,11,0.00
2013-9-13,77.4,61.7,45.1,45.6,33.5,25.5,90,44,18,30.27,29.85,11,2,14,0.00
2013-9-14,70.0,62.7,51.8,42.5,27.3,20.4,48,27,21,30.15,29.80,15,5,21,0.00
2013-9-15,60.3,49.5,39.4,25.3,20.5,14.6,56,33,23,30.42,30.15,9,3,12,0.00
2013-9-16,69.4,53.3,35.2,34.0,26.0,20.1,84,41,21,30.39,30.06,10,2,14,0.00
2013-9-17,67.3,60.9,53.2,42.5,30.5,19.3,49,32,23,30.06,29.80,19,4,19,0.00
2013-9-18,71.2,65.1,59.5,54.9,44.7,36.4,67,49,29,29.80,29.65,8,2,14,0.00
2013-9-19,66.2,61.0,50.2,61.4,44.8,27.2,92,59,31,29.94,29.62,16,5,17,0.00
2013-9-20,57.6,49.9,41.5,32.2,22.7,16.2,58,36,23,30.06,29.94,16,6,22,0.00
2013-9-21,59.5,47.9,37.4,36.5,22.4,17.3,81,39,23,30.09,29.97,10,1,10,0.00
2013-9-22,70.0,56.2,41.0,29.7,26.1,20.2,60,34,21,29.97,29.65,14,4,20,0.00
2013-9-23,78.8,69.3,60.8,36.1,31.0,27.8,37,25,18,29.74,29.62,16,5,19,0.00
2013-9-24,75.9,63.2,48.9,42.1,31.8,19.1,58,33,18,29.91,29.74,13,2,19,0.00
2013-9-25,76.1,61.1,46.4,36.4,27.9,19.6,57,30,18,29.94,29.80,10,2,16,0.00
2013-9-26,70.3,63.5,57.6,55.3,36.6,29.0,76,38,28,29.85,29.68,13,3,16,0.16
2013-9-27,60.6,54.2,45.3,38.3,31.6,26.8,70,43,29,29.88,29.80,10,1,12,0.00
2013-9-28,53.4,50.2,46.4,49.7,46.2,35.5,97,88,50,29.83,29.68,11,2,19,0.98
2013-9-29,68.7,54.8,38.7,50.4,35.7,26.0,100,60,24,29.77,29.53,12,2,14,0.35
2013-9-30,70.7,61.5,51.8,42.8,27.5,20.7,62,29,21,29.53,29.47,16,2,19,0.04
2013-10-1,63.0,53.9,43.5,49.8,27.9,17.6,90,41,22,29.88,29.50,24,5,29,0.12
2013-10-2,61.5,48.5,36.7,40.2,26.1,17.9,92,48,23,30.03,29.85,10,1,11,0.00
2013-10-3,57.4,47.7,38.5,39.8,27.1,14.1,91,49,26,30.33,30.03,14,5,16,0.00
2013-10-4,46.6,41.2,37.4,22.2,14.8,11.2,49,34,26,30.47,30.33,16,5,22,0.00
2013-10-5,53.2,41.0,32.9,19.8,15.7,11.3,56,37,25,30.36,30.06,14,6,16,0.00
2013-10-6,65.3,46.1,29.3,27.1,19.8,13.6,80,39,22,30.06,29.85,18,3,22,0.00
2013-10-7,60.4,48.6,36.9,34.7,22.0,16.6,80,38,23,30.00,29.80,10,3,11,0.00
2013-10-8,66.9,56.3,48.7,30.8,24.0,19.3,42,29,21,29.80,29.62,10,2,12,0.00
2013-10-9,68.4,53.3,41.0,38.1,24.1,16.0,77,35,21,30.06,29.80,8,1,10,0.00
2013-10-10,70.5,54.1,38.3,41.3,30.5,24.6,88,46,21,30.06,29.80,11,1,16,0.00
2013-10-11,69.6,60.7,54.3,53.7,39.9,25.6,88,51,22,29.80,29.38,15,3,15,0.04
2013-10-12,59.2,49.2,36.7,51.9,32.9,17.8,91,57,31,30.15,29.35,25,7,32,0.12
2013-10-13,54.3,42.8,34.2,27.1,17.1,10.2,63,37,22,30.42,30.15,14,3,19,0.00
2013-10-14,49.6,39.6,27.0,29.4,19.6,16.1,80,47,28,30.42,30.33,5,0,7,0.00
2013-10-15,46.8,38.3,29.7,23.6,16.1,7.8,69,42,24,30.33,30.03,15,3,16,0.00
2013-10-16,58.1,43.5,29.7,23.6,18.3,14.4,75,40,23,30.03,29.83,11,3,16,0.00
2013-10-17,51.8,43.3,34.0,19.7,13.7,7.4,44,30,22,30.03,29.91,13,5,16,0.00
2013-10-18,49.5,38.8,29.1,31.7,17.2,8.9,82,44,25,29.97,29.77,11,3,16,0.04
2013-10-19,44.2,37.7,33.1,34.3,25.7,13.0,90,65,29,29.83,29.77,10,3,13,0.12
2013-10-20,37.8,33.9,29.3,32.4,15.8,3.0,93,52,28,29.97,29.77,19,6,24,0.00
2013-10-21,39.4,33.1,29.3,17.1,10.5,4.5,52,39,30,30.06,29.94,22,7,22,0.00
2013-10-22,38.1,33.4,30.4,28.9,14.9,4.0,83,50,28,30.15,30.06,14,4,18,0.00
2013-10-23,37.9,31.3,21.7,30.0,12.9,2.2,82,48,30,30.18,30.09,13,4,16,0.00
2013-10-24,43.2,35.3,26.6,22.5,14.1,5.5,63,43,27,30.30,30.18,14,5,18,0.00
2013-10-25,52.7,39.1,26.6,21.2,13.8,8.9,66,37,25,30.21,29.71,29,8,30,0.00
2013-10-26,41.7,38.4,33.8,17.2,10.9,7.8,49,32,27,30.21,29.83,19,6,26,0.00
2013-10-27,38.7,32.0,24.4,20.0,7.6,-3.0,54,36,27,30.53,29.77,25,7,28,0.00
2013-10-28,30.9,22.8,13.8,2.3,-0.7,-4.4,50,36,27,30.71,30.53,10,2,11,0.00
2013-10-29,35.4,24.1,10.6,6.9,1.3,-4.2,59,39,26,30.56,30.15,11,1,13,0.00
2013-10-30,47.1,33.8,22.6,15.7,7.7,0.0,43,34,26,30.15,29.71,8,2,13,0.00
2013-10-31,44.8,34.6,25.5,21.1,16.3,12.9,73,49,29,29.71,29.50,10,1,10,0.00
2013-11-1,46.0,30.8,20.3,36.8,18.0,13.1,94,63,29,29.97,29.53,14,2,18,0.00
2013-11-2,48.4,32.3,21.0,30.1,17.9,11.7,88,60,25,30.03,29.97,8,0,10,0.00
2013-11-3,48.6,40.8,28.2,20.0,15.7,12.8,64,39,25,30.00,29.71,22,5,22,0.00
2013-11-4,48.4,39.5,30.2,18.7,10.9,3.8,39,31,25,29.91,29.65,22,7,24,0.00
2013-11-5,32.2,29.5,27.3,4.0,1.3,0.2,32,30,29,30.18,29.91,18,6,19,0.00
2013-11-6,36.0,29.2,22.1,9.4,3.7,-1.4,41,33,26,30.21,30.12,11,3,14,0.00
2013-11-7,36.0,28.3,19.8,11.6,4.5,-3.0,48,36,26,30.24,30.09,11,2,11,0.00
2013-11-8,39.4,29.1,16.5,31.8,15.6,2.7,94,60,27,30.09,29.74,14,3,14,0.00
2013-11-9,34.7,33.2,30.0,33.4,26.9,5.7,98,80,35,30.27,29.74,14,3,18,0.12
2013-11-10,30.4,21.8,8.6,9.5,-2.3,-15.9,45,34,28,30.47,30.12,22,7,26,0.00
2013-11-11,18.3,10.8,6.3,-7.0,-14.1,-18.0,32,31,29,30.74,30.47,16,5,18,0.00
2013-11-12,36.7,24.4,9.1,8.5,-2.1,-15.6,38,31,28,30.68,30.03,13,4,18,0.00
2013-11-13,49.8,37.7,26.6,15.8,10.3,5.0,50,33,23,30.03,29.71,19,5,21,0.00
2013-11-14,35.2,32.3,25.5,26.2,17.6,8.2,80,56,34,29.88,29.77,7,1,8,0.00
2013-11-15,46.9,36.7,27.1,26.9,18.9,12.9,82,52,31,29.77,29.41,12,3,20,0.00
2013-11-16,37.0,31.6,25.7,35.0,25.9,19.6,95,81,52,29.50,29.38,14,4,15,0.00
2013-11-17,31.3,25.4,20.3,28.0,17.5,6.5,93,73,52,30.00,29.50,21,9,24,0.00
2013-11-18,21.0,18.6,16.7,8.9,1.5,-2.5,62,47,37,30.27,30.00,11,4,13,0.00
2013-11-19,34.5,27.9,18.9,15.4,5.8,1.4,53,39,31,30.21,29.59,16,7,19,0.00
2013-11-20,32.7,21.1,12.9,12.8,-2.5,-11.1,44,35,29,30.36,29.62,19,8,21,0.00
2013-11-21,12.9,6.9,1.0,-5.8,-11.3,-16.6,42,42,42,30.65,30.36,14,5,21,0.00
2013-11-22,10.2,6.2,-5.6,-8.2,-12.0,-22.7,42,42,42,30.89,30.42,19,7,22,0.00
2013-11-23,6.1,-2.5,-11.2,-12.0,-19.9,-27.8,42,42,42,30.95,30.50,10,3,11,0.00
2013-11-24,34.9,19.6,6.1,15.5,-1.9,-12.0,46,38,31,30.50,29.68,18,6,22,0.00
2013-11-25,34.7,26.0,13.5,10.8,0.6,-11.4,48,33,29,30.21,29.77,22,11,30,0.00
2013-11-26,16.0,10.2,0.7,-8.3,-13.3,-21.7,33,33,32,30.50,30.21,19,7,23,0.00
2013-11-27,17.1,12.2,0.9,-2.2,-9.1,-21.7,47,37,33,30.45,30.09,13,4,18,0.00
2013-11-28,13.5,6.2,-7.4,-3.3,-10.1,-22.6,46,46,46,30.53,30.21,11,2,11,0.00
2013-11-29,21.6,13.8,-6.7,1.6,-5.5,-21.9,46,41,34,30.50,30.06,11,3,15,0.00
2013-11-30,21.2,20.8,20.3,4.3,0.5,-1.1,47,40,38,30.30,30.06,10,2,10,0.00
2013-12-1,26.8,22.4,21.0,6.7,3.3,0.0,49,43,36,30.27,30.00,6,1,10,0.00
2013-12-2,22.6,20.4,17.1,3.3,-0.4,-3.0,47,39,36,30.03,29.91,15,6,19,0.00
2013-12-3,18.3,15.0,10.8,-1.5,-4.6,-8.2,46,41,38,30.15,30.03,16,8,19,0.00
2013-12-4,14.9,12.3,10.0,-3.8,-5.6,-7.4,44,44,41,30.15,29.88,18,8,22,0.00
2013-12-5,10.9,4.7,-3.5,-6.6,-12.3,-19.8,44,44,44,30.30,29.85,20,9,25,0.00
2013-12-6,-0.2,-4.8,-8.5,-17.0,-21.0,-24.5,44,44,44,30.56,30.30,14,5,16,0.00
2013-12-7,-8.5,-12.3,-16.8,-24.5,-27.9,-32.1,44,44,44,30.56,30.39,10,3,16,0.00
2013-12-8,-3.5,-10.5,-17.9,-19.8,-26.3,-33.1,44,44,44,30.39,30.03,10,2,11,0.00
2013-12-9,-6.5,-11.5,-16.4,-22.6,-27.2,-31.8,44,44,44,30.03,29.88,8,2,11,0.00
2013-12-10,-2.2,-9.6,-17.3,-18.7,-25.4,-32.6,44,44,44,30.36,29.91,16,4,17,0.00
2013-12-11,-4.4,-11.2,-16.2,-20.6,-26.9,-31.6,44,44,44,30.42,30.21,11,3,16,0.00
2013-12-12,-1.3,-8.4,-14.4,-17.8,-24.3,-29.9,44,44,44,30.42,30.21,15,4,15,0.00
2013-12-13,-9.9,-12.1,-13.9,-25.8,-27.8,-29.4,44,44,44,30.56,30.45,8,2,13,0.00
2013-12-14,-4.7,-11.4,-22.2,-21.0,-27.1,-37.1,44,44,44,30.50,30.30,11,1,11,0.00
2013-12-15,-1.8,-16.1,-28.3,-18.3,-31.5,-42.7,44,44,44,30.30,29.94,13,2,16,0.00
2013-12-16,30.6,16.3,-1.7,4.2,-5.4,-18.3,46,38,29,29.97,29.71,16,6,20,0.00
2013-12-17,26.4,3.7,-5.6,6.8,-14.6,-23.2,49,41,30,30.15,29.77,21,6,22,0.00
2013-12-18,9.1,2.7,-8.0,-9.7,-15.6,-25.3,41,41,41,30.18,29.68,15,6,22,0.00
2013-12-19,-2.4,-9.1,-16.1,-20.2,-26.4,-32.7,41,41,41,30.39,30.18,11,1,17,0.00
2013-12-20,5.5,-1.8,-10.3,-13.0,-19.7,-27.5,41,41,41,30.18,29.94,12,3,14,0.00
2013-12-21,-4.7,-14.2,-19.1,-22.4,-31.0,-35.5,41,41,41,30.36,30.00,10,4,14,0.00
2013-12-22,-11.7,-16.8,-22.2,-28.8,-33.4,-38.3,41,41,41,30.56,30.36,11,4,14,0.00
2013-12-23,-9.6,-18.8,-28.8,-26.8,-35.2,-44.4,41,41,41,30.65,30.30,10,2,15,0.00
2013-12-24,11.3,2.9,-11.7,-7.8,-15.4,-28.8,41,41,41,30.30,29.97,19,4,20,0.00
2013-12-25,13.3,6.9,-6.3,-5.9,-11.8,-23.8,41,41,41,30.21,30.03,15,3,19,0.00
2013-12-26,16.9,4.0,-11.2,0.3,-14.3,-28.3,47,41,40,30.18,29.94,0,0,0,0.00
2013-12-27,30.2,22.6,7.7,9.6,3.1,-12.6,48,42,36,30.03,29.71,16,6,19,0.00
2013-12-28,7.9,-3.7,-23.4,-12.4,-23.0,-40.8,38,38,38,30.56,30.00,19,5,25,0.00
2013-12-29,-11.9,-20.2,-26.7,-30.4,-37.9,-43.8,38,38,38,30.56,30.21,0,0,0,0.00
2013-12-30,-16.8,-23.8,-29.7,-34.8,-41.2,-46.6,38,38,38,30.36,30.21,13,0,69,0.00
2013-12-31,-20.9,-24.1,-27.9,-38.5,-41.4,-44.9,38,38,38,30.53,30.45,0,0,0,0.00
2014-1-1,-13.5,-24.4,-31.9,-31.8,-41.7,-48.5,38,38,38,30.59,30.53,0,0,0,0.00
2014-1-2,-3.6,-18.5,-29.4,-22.9,-36.4,-46.2,38,38,38,30.53,30.00,14,2,16,0.00